Location: Antoign�
(47.0844°N, 0.1131°W)
Time: 11:11:14
(UTC+00:00)

Cosmos 1869 Rocket - Pass Details

Date: 03 March 2021
Orbit: 605 x 633 km, 82.5° (Epoch: 10 April)

Event Time Altitude Azimuth Distance (km) Brightness Sun altitude
Rises 19:50:19 0° 187° (S) 2,859 6.9 -21.3°
Reaches altitude 10° 19:52:30 10° 187° (S) 1,963 6.0 -21.7°
Maximum altitude 19:56:51 89° 105° (ESE) 622 3.4 -22.4°
Drops below altitude 10° 20:01:17 10° 9° (N) 1,996 6.2 -23.1°
Sets 20:03:32 0° 10° (N) 2,912 7.1 -23.5°
